STARLINK-32360, 61007

Orbit data source: Space-Track

STARLINK-32360, 61007 is a payload satellite owned by SpaceX/Seattle (US) in LEO that was launched on Thu, 05 Sep 2024 UTC via an FALCON 9 launch vehicle from the Air Force Eastern Test Range (AFETR). Payload-class satellites include a variety of spacecraft equipped with specific instruments for various scientific and technological missions. These include communications satellites like Starlink; space stations such as the ISS; scientific satellites like the Hubble; Earth observation satellites from companies like Planet Labs, Umbra, and HawkEye 360; GPS; miniature CubeSats for education and research; and military/defense satellites.

Loading next visibility...
Identifier
61007, 2024-158T
Orbit
LEO
Country
Flag of USUS
Related business
Manufacturer
SpaceX/Seattle
Mission
Operational Commercial Communications
Bus & Motor
STARLINK V2M, Unknown motor
Mass
730 kg wet, ~700 kg dry
Launch date (UTC)
2024-09-05 (1 year ago)
Launch vehicle
FALCON 9
Launch site
Air Force Eastern Test Range (AFETR)
Object type
Payload
Rocket body
Debris
Shape & HBR
Box + 2 Pan, 17.7 m
Radar Cross Section
33.884 m², Large (>1 m²)

Expand to show TLE details & history
Last TLE update: 1 day ago

TLE from 1 day ago
0 STARLINK-32360
1 61007U 24158T   26032.91189953  .00000134  00000-0  16666-4 0  9999
2 61007  53.1606 216.4132 0001421  74.2514 285.8644 15.30184569 80318
Epoch: 2026-02-01T21:53Z
TLE epoch observation values (Epoch: 2026-02-01T21:53:08.119Z)
Latitude
0.00003°
Longitude
116.01466°
Altitude
475.895 km
Speed
7.629 km/s
True Right ascension
14h 25m 39s
True Declination
0° 00' 00"
Sunlit
Object was in daylight at epoch
Visualization orbit readout
Latitude
Unknown
Longitude
Unknown
Altitude
Unknown
Speed
Unknown
Apparent Right ascension
Unknown
Apparent Declination
Unknown
Sunlit
N/A
Visualization observer readout
Local Sidereal Time
08:59:10
Azimuth
Unknown
Elevation
Unknown
Doppler factor
Unknown
Orbital elements
Apogee altitude
476.491 km
Perigee altitude
474.544 km
Semi-major axis
6,853.654 km
Eccentricity
0.00014
Inclination
53.1606°
RAAN
216.4132°
Arg. of periapsis
74.2514°
True anomaly
285.84874°
Mean anomaly
285.8644°
Eccentric anomaly
285.85657°
Mean motion
3.82525 °/min
Orbital period
94.11 mins
BSTAR
0.000016666
Loading maneuver chart data...
Computing Atmospheric mass density...
Loading historical data...
Loading historical data...
Loading historical data...
Loading historical data...
Loading historical data...
Loading historical data...
Loading historical data...

Documentation

Showing up to 5 results
|